This is the latest recevied weather packets stored in our database for station/object KD4KKF. If no packets are shown the sender has not sent any weather packets the latest 10 day(s).
| Time | Temp. | Humidity | Pressure | Rain* | Wind** | Luminosity | Snow |
|---|---|---|---|---|---|---|---|
| 1777758588 | 21.11° C | 37% | 1014.9 hPa | 0 mm | - | 402 W/m² | - |
| 1777758285 | 21.67° C | 41% | 1015 hPa | 0 mm | - | 443 W/m² | - |
| 1777757982 | 21.11° C | 38% | 1015 hPa | 0 mm | - | 471 W/m² | - |
| 1777757678 | 21.11° C | 39% | 1014.9 hPa | 0 mm | - | 479 W/m² | - |
| 1777757377 | 21.11° C | 37% | 1014.9 hPa | 0 mm | - | 484 W/m² | - |
| 1777757076 | 21.11° C | 36% | 1014.9 hPa | 0 mm | - | 501 W/m² | - |
| 1777756772 | 20.56° C | 37% | 1014.9 hPa | 0 mm | - | 509 W/m² | - |
| 1777756468 | 21.11° C | 36% | 1014.8 hPa | 0 mm | - | 537 W/m² | - |
| 1777756166 | 21.11° C | 37% | 1015 hPa | 0 mm | - | 534 W/m² | - |
| 1777755862 | 20.56° C | 38% | 1014.9 hPa | 0 mm | - | 523 W/m² | - |
| 1777755560 | 20.56° C | 38% | 1015 hPa | 0 mm | - | 542 W/m² | - |
| 1777755255 | 21.11° C | 36% | 1015.2 hPa | 0 mm | - | 142 W/m² | - |
| 1777754953 | 21.11° C | 40% | 1015.2 hPa | 0 mm | - | 626 W/m² | - |
| 1777754650 | 20.56° C | 40% | 1015.2 hPa | 0 mm | - | 630 W/m² | - |
| 1777754348 | 20.56° C | 39% | 1015.1 hPa | 0 mm | - | 642 W/m² | - |
| 1777754045 | 21.11° C | 38% | 1015.3 hPa | 0 mm | - | 656 W/m² | - |
| 1777753740 | 20.56° C | 39% | 1015.4 hPa | 0 mm | - | 669 W/m² | - |
| 1777753438 | 20.56° C | 40% | 1015.3 hPa | 0 mm | - | 687 W/m² | - |
| 1777753136 | 20° C | 39% | 1015.3 hPa | 0 mm | - | 252 W/m² | - |
| 1777752831 | 20.56° C | 38% | 1015.3 hPa | 0 mm | - | 217 W/m² | - |
| 1777752528 | 21.11° C | 36% | 1015.2 hPa | 0 mm | - | 735 W/m² | - |
| 1777752223 | 20.56° C | 38% | 1015.4 hPa | 0 mm | - | 738 W/m² | - |
| 1777751922 | 21.67° C | 36% | 1015.3 hPa | 0 mm | - | 743 W/m² | - |
| 1777751618 | 20.56° C | 34% | 1015.2 hPa | 0 mm | - | 734 W/m² | - |
| 1777751315 | 20° C | 38% | 1015.5 hPa | 0 mm | - | 736 W/m² | - |
* Rain latest hour (hover to see other rain measurements)
** Current wind speed in m/s (hover to see current wind gust speed)